This is the latest recevied weather packets stored in our database for station/object N0NPO. If no packets are shown the sender has not sent any weather packets the latest 10 day(s).
| Time | Temp. | Humidity | Pressure | Rain* | Wind** | Luminosity | Snow |
|---|---|---|---|---|---|---|---|
| 1778262629 | 20° C | 1% | 1011.8 hPa | 0 mm | - | 532 W/m² | - |
| 1778262326 | 20° C | 1% | 1011.9 hPa | 0 mm | - | 745 W/m² | - |
| 1778262023 | 19.44° C | 1% | 1011.9 hPa | 0 mm | - | 734 W/m² | - |
| 1778261720 | 19.44° C | 1% | 1012 hPa | 0 mm | - | 710 W/m² | - |
| 1778261416 | 18.89° C | 1% | 1012.2 hPa | 0 mm | - | 712 W/m² | - |
| 1778261113 | 18.89° C | 1% | 1012.1 hPa | 0 mm | - | 690 W/m² | - |
| 1778260810 | 18.89° C | 1% | 1012.2 hPa | 0 mm | - | 673 W/m² | - |
| 1778260506 | 19.44° C | 1% | 1012.4 hPa | 0 mm | - | 692 W/m² | - |
| 1778260203 | 18.89° C | 1% | 1012.1 hPa | 0 mm | - | 774 W/m² | - |
| 1778259900 | 18.89° C | 1% | 1012.2 hPa | 0 mm | - | 765 W/m² | - |
| 1778259597 | 18.89° C | 1% | 1012.1 hPa | 0 mm | - | 777 W/m² | - |
| 1778259295 | 18.33° C | 1% | 1012.2 hPa | 0 mm | - | 702 W/m² | - |
| 1778258990 | 18.33° C | 1% | 1012.2 hPa | 0 mm | - | 652 W/m² | - |
| 1778258688 | 18.33° C | 1% | 1012.3 hPa | 0 mm | - | 712 W/m² | - |
| 1778258384 | 18.33° C | 1% | 1012.1 hPa | 0 mm | - | 766 W/m² | - |
| 1778258082 | 17.78° C | 1% | 1012.4 hPa | 0 mm | - | 712 W/m² | - |
| 1778257778 | 17.78° C | 1% | 1012.3 hPa | 0 mm | - | 773 W/m² | - |
| 1778257476 | 17.78° C | 1% | 1012.4 hPa | 0 mm | - | 686 W/m² | - |
| 1778257172 | 17.78° C | 1% | 1012.3 hPa | 0 mm | - | 691 W/m² | - |
| 1778256869 | 17.78° C | 1% | 1012 hPa | 0 mm | - | 745 W/m² | - |
| 1778256567 | 17.78° C | 1% | 1012.2 hPa | 0 mm | - | 722 W/m² | - |
| 1778256266 | 17.78° C | 1% | 1012.2 hPa | 0 mm | - | 694 W/m² | - |
| 1778255961 | 17.78° C | 1% | 1012.2 hPa | 0 mm | - | 667 W/m² | - |
| 1778255659 | 17.78° C | 1% | 1012.2 hPa | 0 mm | - | 626 W/m² | - |
| 1778255355 | 17.78° C | 1% | 1012.1 hPa | 0 mm | - | 690 W/m² | - |
* Rain latest hour (hover to see other rain measurements)
** Current wind speed in m/s (hover to see current wind gust speed)